Regional Weather Roundup
Issued by NWS Raleigh/Durham, NC

Home | Current Version | Previous Version | Text Only | Print | Product List | Glossary On
Versions: 1 2 3 4 5 6 7 8 9 10 11 12 13 14 15 16 17 18 19 20 21 22 23 24 25 26 27 28 29 30 31 32 33 34 35 36 37 38 39 40 41 42 43 44 45 46 47 48 49 50
000
ASUS42 KRAH 270510
RWRRAH
NORTH CAROLINA WEATHER ROUNDUP
NATIONAL WEATHER SERVICE RALEIGH NC
100 AM EDT TUE SEP 27 2016

NOTE: "FAIR" INDICATES FEW OR NO CLOUDS BELOW 12,000 FEET WITH NO
SIGNIFICANT WEATHER AND/OR OBSTRUCTIONS TO VISIBILITY.

NCZ001-053-055-056-065-067-270600-
WESTERN NORTH CAROLINA

CITY           SKY/WX    TMP DP  RH WIND       PRES   REMARKS
ASHEVILLE      CLOUDY    64  62  93 S3        30.10F
JEFFERSON      CLOUDY    62  60  95 CALM      30.11F
HICKORY        CLOUDY    67  67 100 S5        30.05F
RUTHERFORDTON  CLOUDY    67  67 100 CALM      30.06F
MOUNT AIRY     CLOUDY    67  66  95 CALM      30.07S FOG
BOONE          LGT RAIN  61  61 100 CALM      30.12S
$$

NCZ021-022-025-041-071-084-088-270600-
CENTRAL NORTH CAROLINA

CITY           SKY/WX    TMP DP  RH WIND       PRES   REMARKS
CHARLOTTE      LGT RAIN  68  65  90 S7        30.06F
GREENSBORO     LGT RAIN  68  68 100 S8        30.04S
WINSTON-SALEM  LGT RAIN  67  65  93 S7        30.05F
RALEIGH-DURHAM CLOUDY    72  68  87 SW9       30.03F
FORT BRAGG     CLOUDY    73  67  81 S3        30.02F
FAYETTEVILLE   CLOUDY    74  67  78 SW5       30.02F
BURLINGTON     RAIN      67  67 100 SW6       30.03F FOG
LAURINBURG     CLOUDY    73  69  87 CALM      30.03F
$$

NCZ011-015-027-028-043-044-047-080-103-270600-
NORTHEASTERN NORTH CAROLINA

CITY           SKY/WX    TMP DP  RH WIND       PRES   REMARKS
ROCKY MT-WILSO CLOUDY    70  67  90 S5        30.02F
GREENVILLE     MOCLDY    70  68  94 CALM      30.04F
WASHINGTON     PTCLDY    68  66  96 CALM      30.03F
ELIZABETH CITY MOCLDY    72  66  81 S5        30.02F
MANTEO         CLOUDY    76  67  74 S16       30.03F
CAPE HATTERAS  CLEAR     78  65  63 S14       30.03F
$$

NCZ078-087-090-091-093-098-101-270600-
SOUTHEASTERN NORTH CAROLINA

CITY           SKY/WX    TMP DP  RH WIND       PRES   REMARKS
LUMBERTON      CLOUDY    69  67  93 CALM      30.01F
GOLDSBORO      CLOUDY    70  70 100 SE2       30.00F
KINSTON        CLOUDY    68  66  95 CALM      30.04S
KENANSVILLE    CLOUDY    66  66 100 CALM      30.03F FOG
NEW BERN       CLEAR     68  66  93 CALM      30.04F
CHERRY POINT   CLEAR     72  65  78 SE7       30.03F
BEAUFORT       CLEAR     71  66  84 SE3       30.02F
JACKSONVILLE   CLOUDY    70  67  90 CALM      30.01F
WILMINGTON     CLOUDY    71  68  90 NE3       30.01F
$$




USA.gov is the U.S. government's official web portal to all federal, state and local government web resources and services.